Location: Bremen
(53.0793°N, 8.8017°E)
Time: 09:15:19
(UTC+01:00)

SR - Visible Passes

Search period start: 03 December 2021 00:00
Search period end: 13 December 2021 00:00
Orbit: 583 x 871 km, 66.7° (Epoch: 02 December)

Date Brightness Start Highest point End Pass type
(mag) Time Alt. Az. Time Alt. Az. Time Alt. Az.
03 Dec ? 05:01:54 14° NNE 05:01:54 14° NNE 05:03:31 10° NE visible
03 Dec ? 06:41:17 12° NNW 06:44:39 27° NNE 06:48:23 10° E visible
04 Dec ? 05:52:46 16° N 05:54:23 20° NNE 05:57:35 10° ENE visible
04 Dec ? 07:32:53 10° NW 07:37:09 66° NE 07:41:34 10° SE visible
05 Dec ? 05:04:16 16° NNE 05:04:16 16° NNE 05:06:39 10° NE visible
05 Dec ? 06:43:39 13° NNW 06:47:08 39° NE 06:51:17 10° ESE visible
06 Dec ? 04:15:46 10° NE 04:15:46 10° NE 04:15:48 10° NE visible
06 Dec ? 05:55:10 20° N 05:56:59 26° NNE 06:00:41 10° E visible
06 Dec ? 07:35:07 10° NW 07:39:24 75° SW 07:43:52 10° SSE visible
07 Dec ? 05:06:42 19° NNE 05:06:42 19° NNE 05:09:51 10° ENE visible
07 Dec ? 06:46:06 15° NNW 06:49:31 62° NE 06:53:56 10° SE visible
08 Dec ? 04:18:16 12° NE 04:18:16 12° NE 04:18:55 10° NE visible
08 Dec ? 05:57:40 25° N 05:59:29 37° NE 06:03:36 10° ESE visible
08 Dec ? 07:37:28 10° NW 07:41:34 43° WSW 07:45:49 10° SSE visible
09 Dec ? 05:09:15 25° NNE 05:09:19 25° NNE 05:12:58 10° E visible
09 Dec ? 06:48:40 18° NW 06:51:47 80° SW 06:56:16 10° SE visible
10 Dec ? 04:20:52 15° NE 04:20:52 15° NE 04:22:08 10° ENE visible
10 Dec ? 06:00:17 35° NNW 06:01:52 58° NE 06:06:17 10° SE visible
10 Dec ? 07:40:03 10° WNW 07:43:36 25° WSW 07:47:17 10° S visible
11 Dec ? 05:11:56 35° NE 05:11:56 35° NE 05:15:56 10° ESE visible
11 Dec ? 06:51:21 21° WNW 06:53:56 46° WSW 06:58:16 10° SSE visible
12 Dec ? 04:23:39 18° ENE 04:23:39 18° ENE 04:25:16 10° E visible
12 Dec ? 06:03:04 51° NW 06:04:09 85° SW 06:08:40 10° SE visible
12 Dec ? 07:43:09 10° WNW 07:45:32 14° WSW 07:47:58 10° SW visible
